Weather History for Lancaster, PA

Change the Weather History Date:

Wednesday, March 6, 2013

  Actual Average Record
Temperature  
Mean Temperature 36 °F -  
Max Temperature 39 °F 47 °F 63 °F (2004)
Min Temperature 33 °F 27 °F 6 °F (1978)
Degree Days  
Heating Degree Days 29    
Moisture  
Dew Point 30 °F    
Average Humidity 75    
Maximum Humidity 87    
Minimum Humidity 57    
Precipitation  
Precipitation 0.24 in - - ()
Sea Level Pressure  
Sea Level Pressure 29.84 in    
Wind  
Wind Speed 17 mph (NE)    
Max Wind Speed 25 mph    
Max Gust Speed 36 mph    
Visibility 9 miles    
Events Rain    
Averages and records for this station are not official NWS values.
T = Trace of Precipitation, MM = Missing Value Source: NWS Daily Summary

Daily Weather History Graph

Daily Weather History Graph

Search for Another Location

Airport:

Trip Planner

Search our weather history database for the weather conditions in past years. The results will help you decide how hot, cold, wet, or windy it might be!

Date:

Astronomy

Mar. 06, 2013 Rise Set
Actual Time 6:30 AM EST 6:02 PM EST
Civil Twilight 6:03 AM EST 6:29 PM EST
Nautical Twilight 5:32 AM EST 7:01 PM EST
Astronomical Twilight 5:00 AM EST 7:32 PM EST
Moon 2:37 AM EST (3/6) 12:42 PM EST (3/6)
Length of Visible Light 12h 26m
Length of Day
11h 32m
Waning Crescent, 30% of the Moon is Illuminated
Mar 6
Waning Crescent
Mar 11
New
Mar 19
First Quarter
Mar 27
Full
Apr 3
Last Quarter

Hourly Weather History & Observations

Time (EST) Temp. Windchill Dew Point Humidity Pressure Visibility Wind Dir Wind Speed Gust Speed Precip Events Conditions
12:53 AM 33.1 °F 27.7 °F 26.1 °F 75% 29.87 in 9.0 mi East 5.8 mph - N/A   Clear
1:53 AM 34.0 °F 26.6 °F 26.1 °F 73% 29.84 in 10.0 mi East 9.2 mph - N/A   Clear
2:53 AM 35.1 °F 25.5 °F 27.0 °F 72% 29.81 in 10.0 mi East 15.0 mph - N/A   Overcast
3:53 AM 35.1 °F 24.5 °F 28.0 °F 76% 29.77 in 10.0 mi East 18.4 mph - N/A   Overcast
4:45 AM 35.6 °F 25.2 °F 28.4 °F 75% 29.75 in 10.0 mi East 18.4 mph 29.9 mph 0.00 in   Overcast
4:53 AM 36.0 °F 24.4 °F 30.0 °F 79% 29.76 in 10.0 mi East 23.0 mph 28.8 mph 0.00 in Rain Light Rain
5:53 AM 36.0 °F 24.4 °F 30.0 °F 79% 29.75 in 9.0 mi East 23.0 mph 28.8 mph 0.00 in Rain Light Rain
6:53 AM 36.0 °F 25.3 °F 30.0 °F 79% 29.76 in 8.0 mi ENE 19.6 mph - 0.01 in Rain Light Rain
7:53 AM 36.0 °F 24.7 °F 30.9 °F 82% 29.76 in 8.0 mi ENE 21.9 mph - 0.01 in Rain Light Rain
8:53 AM 37.0 °F 25.4 °F 30.9 °F 79% 29.76 in 10.0 mi ENE 25.3 mph 32.2 mph 0.01 in Rain Light Rain
9:53 AM 37.9 °F 26.6 °F 30.9 °F 76% 29.78 in 10.0 mi ENE 25.3 mph 34.5 mph 0.00 in   Overcast
10:53 AM 39.0 °F 28.0 °F 30.0 °F 70% 29.78 in 10.0 mi NE 25.3 mph 33.4 mph N/A   Overcast
11:53 AM 39.0 °F 28.0 °F 30.0 °F 70% 29.79 in 10.0 mi NE 25.3 mph 35.7 mph 0.00 in Rain Light Rain
12:11 PM 37.4 °F 25.9 °F 30.2 °F 75% 29.78 in 10.0 mi NE 25.3 mph 32.2 mph 0.00 in Rain Light Rain
12:22 PM 37.4 °F 28.2 °F 30.2 °F 75% 29.79 in 10.0 mi NE 16.1 mph 31.1 mph 0.00 in Rain Light Rain
12:53 PM 37.0 °F 27.0 °F 30.9 °F 79% 29.81 in 4.0 mi NNE 18.4 mph 28.8 mph 0.01 in Rain Light Rain
1:20 PM 35.6 °F 24.8 °F 32.0 °F 87% 29.80 in 4.0 mi NNE 19.6 mph 27.6 mph 0.03 in Rain Light Rain
1:53 PM 37.0 °F 27.0 °F 33.1 °F 86% 29.81 in 5.0 mi NNE 18.4 mph 28.8 mph 0.06 in Rain Light Rain
2:21 PM 37.4 °F 26.9 °F 32.0 °F 81% 29.80 in 7.0 mi NNE 20.7 mph 26.5 mph 0.01 in Rain Light Rain
2:53 PM 37.9 °F 27.1 °F 32.0 °F 79% 29.83 in 6.0 mi NNE 23.0 mph 27.6 mph 0.04 in Rain Rain
3:53 PM 37.9 °F 28.5 °F 33.1 °F 83% 29.86 in 6.0 mi NNE 17.3 mph 27.6 mph 0.05 in Rain Light Rain
4:53 PM 37.9 °F 28.5 °F 33.1 °F 83% 29.90 in 5.0 mi NE 17.3 mph 24.2 mph 0.03 in Rain Light Rain
5:53 PM 37.0 °F 27.7 °F 32.0 °F 82% 29.94 in 8.0 mi NE 16.1 mph 26.5 mph 0.02 in Rain Light Rain
6:00 PM 37.4 °F 27.8 °F 32.0 °F 81% 29.93 in 10.0 mi NNE 17.3 mph 26.5 mph 0.00 in Rain Light Rain
6:53 PM 37.9 °F 27.9 °F 30.0 °F 73% 29.95 in 10.0 mi NNE 19.6 mph 25.3 mph 0.00 in   Overcast
7:53 PM 39.0 °F 31.4 °F 28.0 °F 65% 29.96 in 10.0 mi North 12.7 mph - N/A   Overcast
8:53 PM 39.0 °F 29.6 °F 27.0 °F 62% 29.97 in 10.0 mi NNE 18.4 mph 25.3 mph N/A   Overcast
9:53 PM 37.9 °F 28.9 °F 26.1 °F 62% 29.98 in 10.0 mi NNE 16.1 mph 21.9 mph N/A   Mostly Cloudy
10:53 PM 37.9 °F 29.2 °F 24.1 °F 57% 29.98 in 10.0 mi NNE 15.0 mph 21.9 mph N/A   Clear
11:53 PM 36.0 °F 29.0 °F 24.1 °F 62% 30.00 in 10.0 mi North 9.2 mph - N/A   Clear